[[{"header":{"parameterUnit":"m.s-1","parameterCategory":1,"la1":30.2991,"la2":30.254,"lo1":-89.0895,"lo2":-89.0444,"dy":0.0017,"dx":0.0017,"nx":28,"ny":28,"refTime":"2024-08-28T09:00:00:Z","depth":0,"parameterNumber":2,"parameterNumberName":"U-component_of_WINDS"},"data":[0,0,0,0,0,0,0,0,0,0,0,0,0,0,0,0,0,0,0,0,0,0,0,0,0,0,0,0,0,0,0,0,0,0,0,0,0,0,0,0,0,0,0,0,0,0,0,0,0,0,0,0,0,0,0,0,0,0,-2.8565,-2.8567,0,-2.8683,-2.8685,-2.8686,-2.8664,-2.8661,-2.8659,-2.8657,-2.8781,-2.8786,-2.8791,0,0,0,0,0,0,0,0,0,0,0,0,0,-2.8323,-2.8328,-2.8565,-2.8567,-2.8568,-2.8683,-2.8685,-2.8686,-2.8664,-2.8661,-2.8659,-2.8656,-2.8779,-2.8785,-2.8792,0,0,0,0,0,0,0,0,0,0,0,0,0,-2.8434,-2.8329,-2.8565,-2.8571,-2.8572,-2.8683,-2.8685,-2.8687,-2.8664,-2.8661,-2.8658,-2.8655,-2.8777,-2.8785,-2.8793,-2.8906,0,0,-2.8817,-2.882,0,0,0,0,0,0,0,0,-2.8427,-2.8443,-2.8568,-2.8571,-2.8573,-2.8655,-2.8645,-2.876,-2.8665,-2.863,-2.8657,-2.8654,-2.8742,-2.8753,-2.8782,-2.8911,-2.8917,-2.8818,-2.8822,-2.8826,-2.8828,0,0,0,0,0,0,0,-2.842,-2.8437,-2.8612,-2.857,-2.8573,-2.8568,-2.8581,-2.8667,-2.8702,-2.8632,-2.8631,-2.8645,-2.8742,-2.8774,-2.8785,-2.8918,-2.8817,-2.8824,-2.8829,-2.8832,-2.9146,-2.9149,0,0,0,0,0,0,-2.841,-2.8431,-2.8608,-2.8616,-2.8491,-2.8575,-2.8589,-2.8632,-2.8701,-2.8709,-2.8648,-2.8644,-2.8762,-2.8775,-2.8789,-2.8925,-2.8826,-2.8833,-2.8838,-2.9142,-2.9147,-2.9151,0,0,0,0,0,0,-2.8405,-2.8426,-2.8604,-2.8523,-2.8545,-2.8583,-2.8632,-2.8636,-2.8668,-2.8713,-2.8719,-2.8673,-2.876,-2.8778,-2.8876,-2.8929,-2.8837,-2.8844,-2.9138,-2.9144,-2.9149,-2.9198,0,0,0,0,0,0,-2.8398,-2.8424,-2.8467,-2.8524,-2.855,-2.8688,-2.8635,-2.8641,-2.8681,-2.8677,-2.8739,-2.8746,-2.8759,-2.8865,-2.8884,-2.8938,-2.885,-2.9134,-2.9141,-2.9147,-2.9192,-2.9204,-2.9215,0,0,0,0,0,-2.8389,-2.8477,-2.8469,-2.849,-2.8603,-2.8691,-2.8706,-2.8719,-2.8685,-2.8729,-2.8758,-2.8744,-2.892,-2.8875,-2.8897,-2.8954,-2.913,-2.9139,-2.9147,-2.9186,-2.9202,-2.9215,0,0,0,0,0,0,-2.8425,-2.8484,-2.8476,-2.8585,-2.8633,-2.8687,-2.8742,-2.8735,-2.8794,-2.8788,-2.8802,-2.8816,-2.8916,-2.8945,-2.8894,-2.9066,-2.9021,-2.9033,-2.9043,-2.9058,-2.907,-2.906,-2.8857,0,0,0,0,0,-2.8446,-2.8511,-2.856,-2.8651,-2.8675,-2.8705,-2.8744,-2.8749,-2.88,-2.8821,-2.8857,-2.8908,-2.8975,-2.9018,-2.9082,-2.9196,-2.9209,-2.9246,-2.9258,-2.9267,-2.9278,-2.9339,-2.9356,-2.9177,-2.9177,-2.9177,0,0,-2.8489,-2.8529,-2.857,-2.8659,-2.8697,-2.8765,-2.8722,-2.8796,-2.8847,-2.8832,-2.8927,-2.8956,-2.9014,-2.912,-2.9169,-2.9147,-2.933,-2.9277,-2.9284,-2.929,-2.9349,-2.9366,-2.9381,-2.9183,-2.9182,-2.9181,0,0,-2.8602,-2.8639,-2.8718,-2.8757,-2.8815,-2.8834,-2.8853,-2.8909,-2.8927,-2.9022,-2.9013,-2.9074,-2.9189,-2.923,-2.9266,-2.9395,-2.9384,-2.9416,-2.9476,-2.9536,-2.955,-2.9563,-2.9608,-2.9624,-2.9426,-2.9427,-2.9427,0,-2.8648,-2.8749,-2.876,-2.8835,-2.8874,-2.8864,-2.8944,-2.8982,-2.9058,-2.9086,-2.9061,-2.9204,-2.9243,-2.9358,-2.9389,-2.942,-2.9442,-2.9408,-2.9547,-2.956,-2.9572,-2.9615,-2.9632,-2.943,-2.943,-2.9429,-2.9429,0,-2.8803,-2.8873,-2.8931,-2.9003,-2.9049,-2.9127,-2.915,-2.9196,-2.9198,-2.922,-2.9317,-2.9363,-2.9435,-2.9464,-2.9467,-2.958,-2.9565,-2.9543,-2.9497,-2.9592,-2.9632,-2.9649,-2.9435,-2.9433,-2.9433,-2.9432,0,0,-2.8941,-2.9018,-2.9039,-2.9072,-2.9135,-2.919,-2.9267,-2.9337,-2.9376,-2.943,-2.9495,-2.9592,-2.9572,-2.9613,-2.9621,-2.9674,-2.9772,-2.9646,-2.9648,-2.9667,-2.9899,-2.9913,-2.9932,-2.9766,-2.9769,-2.9772,-2.9894,0,-2.9059,-2.9193,-2.9206,-2.9327,-2.9392,-2.9383,-2.945,-2.9497,-2.952,-2.9579,-2.9605,-2.9674,-2.9643,-2.9668,-2.972,-2.9749,-2.9819,-2.9741,-2.9826,-2.9829,-2.9811,-2.9954,-2.997,-3.0082,-2.991,-2.9912,-2.9914,0,-2.9214,-2.927,-2.9397,-2.9451,-2.9479,-2.9539,-2.9604,-2.9661,-2.9714,-2.9727,-2.9772,-2.9773,-2.9853,-2.9806,-2.9916,-2.9863,-2.9899,-2.9919,-2.9924,-2.9931,-2.9876,-2.9964,-3.0119,-3.0135,-2.994,-2.9938,-2.9936,0,-2.93,-2.9408,-2.9498,-2.9526,-2.9591,-2.9634,-2.9663,-2.9713,-2.9754,-2.9811,-2.9838,-2.9905,-2.9941,-2.9993,-3.0012,-2.9976,-3.0122,-3.0076,-3.0135,-3.0134,-3.0165,-3.0163,-3.0327,-3.0191,-3.019,-3.019,-3.019,0,-2.943,-2.9508,-2.9537,-2.9593,-2.968,-2.9694,-2.9781,-2.9808,-2.9852,-2.9913,-2.991,-2.9968,-2.999,-3.0051,-3.0067,-3.0156,-3.0173,-3.0186,-3.0188,-3.0185,-3.0183,-3.0208,-3.02,-3.0195,-3.0194,-3.0193,-3.0192,0,-2.954,-2.9564,-2.9661,-2.9714,-2.9729,-2.9791,-2.9837,-2.9891,-2.9913,-2.999,-3.0009,-3.0045,-3.0117,-3.0141,-3.0229,-3.0239,-3.0342,-3.0339,-3.0324,-3.0324,-3.0381,-3.0375,-3.0566,-3.0591,-3.044,-3.0441,-3.0442,0,-2.9621,-2.968,-2.9739,-2.9779,-2.981,-2.9874,-2.9916,-2.9933,-2.9977,-3.0041,-3.0087,-3.0158,-3.0216,-3.0332,-3.0366,-3.0433,-3.043,-3.0493,-3.044,-3.0435,-3.043,-3.0426,-3.0431,-3.0502,-3.0504,-3.0505,-3.0506,0,-2.976,-2.9769,-2.9828,-2.9892,-2.9941,-2.9993,-3.0042,-3.0076,-3.01,-3.0149,-3.0222,-3.0267,-3.0356,-3.0426,-3.0495,-3.0526,-3.052,-3.0522,-3.0539,-3.0536,-3.0524,-3.053,-3.0349,-3.0518,-3.0516,-3.0515,-3.0515,-3.0514,-2.9858,-2.991,-2.9959,-3.0026,-3.0064,-3.0111,-3.0163,-3.0192,-3.0252,-3.0325,-3.0332,-3.041,-3.0462,-3.0553,-3.0588,-3.065,-3.0632,-3.0657,-3.0664,-3.0669,-3.0673,-3.0515,-3.0663,-3.0662,-3.0662,-3.0662,-3.0662,0,-2.9996,-3.0028,-3.0088,-3.0157,-3.0209,-3.0199,-3.0253,-3.0298,-3.0366,-3.0415,-3.0471,-3.0555,-3.0623,-3.0663,-3.0732,-3.0774,-3.0773,-3.0791,-3.0788,-3.0795,-3.0685,-3.0663,-3.0791,-3.0791,-3.0791,-3.0791,-3.079,-3.079,-3.0074,-3.0162,-3.0176,-3.0283,-3.0314,-3.0389,-3.0421,-3.0464,-3.0503,-3.0596,-3.0652,-3.0677,-3.0722,-3.0794,-3.0856,-3.0866,-3.0891,-3.0911,-3.0919,-3.0816,-3.0803,-3.079,-3.0769,-3.0917,-3.0917,-3.1024,-3.1025,-3.1025]},{"header":{"parameterUnit":"m.s-1","parameterCategory":1,"la1":30.2991,"la2":30.254,"lo1":-89.0895,"lo2":-89.0444,"dy":0.0017,"dx":0.0017,"nx":28,"ny":28,"refTime":"2024-08-28T09:00:00:Z","depth":0,"parameterNumber":3,"parameterNumberName":"V-component_of_WINDS"},"data":[0,0,0,0,0,0,0,0,0,0,0,0,0,0,0,0,0,0,0,0,0,0,0,0,0,0,0,0,0,0,0,0,0,0,0,0,0,0,0,0,0,0,0,0,0,0,0,0,0,0,0,0,0,0,0,0,0,0,1.5948,1.5947,0,1.5885,1.5885,1.5884,1.5792,1.579,1.5789,1.5787,1.5724,1.5724,1.5723,0,0,0,0,0,0,0,0,0,0,0,0,0,1.5989,1.5989,1.5948,1.5947,1.5946,1.5885,1.5885,1.5884,1.5792,1.579,1.5788,1.5786,1.5724,1.5724,1.5723,0,0,0,0,0,0,0,0,0,0,0,0,0,1.5954,1.5989,1.5948,1.5893,1.5888,1.5886,1.5884,1.5883,1.5793,1.579,1.5788,1.5786,1.5724,1.5724,1.5723,1.577,0,0,1.5723,1.5722,0,0,0,0,0,0,0,0,1.5956,1.5952,1.5902,1.5897,1.5891,1.5844,1.5876,1.5845,1.5793,1.5829,1.5787,1.5784,1.5766,1.5762,1.5755,1.5767,1.5764,1.5723,1.5722,1.5722,1.5722,0,0,0,0,0,0,0,1.5958,1.5954,1.5923,1.5901,1.5895,1.5872,1.5865,1.587,1.5812,1.5825,1.5819,1.5812,1.5762,1.5756,1.5753,1.5763,1.5723,1.5722,1.5722,1.5722,1.581,1.5813,0,0,0,0,0,0,1.5969,1.5957,1.5925,1.5921,1.5918,1.5874,1.5865,1.5861,1.5811,1.5801,1.5815,1.5808,1.5758,1.5754,1.5751,1.5801,1.5722,1.5722,1.5722,1.5808,1.5811,1.5814,0,0,0,0,0,0,1.597,1.5967,1.5927,1.5937,1.5931,1.5875,1.5872,1.5861,1.5855,1.5803,1.5792,1.5819,1.5756,1.5751,1.5766,1.5798,1.5722,1.5722,1.5805,1.5809,1.5812,1.5904,0,0,0,0,0,0,1.5972,1.5968,1.5984,1.5938,1.593,1.5943,1.5874,1.5862,1.5855,1.5846,1.5804,1.5795,1.5753,1.5767,1.5766,1.5796,1.5721,1.5802,1.5807,1.5811,1.5898,1.591,1.5921,0,0,0,0,0,1.5973,1.6013,1.5986,1.5982,1.595,1.5945,1.5941,1.5892,1.5858,1.5874,1.5841,1.5796,1.5795,1.5769,1.5767,1.5798,1.5799,1.5805,1.5811,1.5892,1.5908,1.5921,0,0,0,0,0,0,1.6064,1.6006,1.5975,1.6,1.5979,1.593,1.5949,1.591,1.5898,1.589,1.5831,1.5822,1.5844,1.5823,1.5795,1.5841,1.5791,1.5796,1.5853,1.5868,1.5879,1.5883,1.5721,0,0,0,0,0,1.6087,1.6088,1.6037,1.6064,1.6055,1.6005,1.6001,1.5965,1.594,1.593,1.5898,1.5876,1.5871,1.5868,1.586,1.5895,1.5884,1.5915,1.5927,1.5937,1.5942,1.5959,1.5972,1.5832,1.5832,1.5832,0,0,1.6134,1.6102,1.6106,1.6082,1.606,1.6063,1.5997,1.6002,1.6004,1.5931,1.5943,1.5919,1.589,1.5915,1.5925,1.5898,1.5979,1.5944,1.5953,1.5952,1.5966,1.5979,1.5991,1.5836,1.5835,1.5835,0,0,1.6221,1.6197,1.6217,1.6198,1.6167,1.6133,1.6139,1.6096,1.6077,1.6088,1.6034,1.6036,1.6028,1.6009,1.5999,1.6082,1.604,1.6081,1.6141,1.6159,1.617,1.6179,1.6208,1.6219,1.6087,1.6087,1.6087,0,1.6283,1.6284,1.6233,1.6241,1.6232,1.6168,1.6188,1.6172,1.614,1.6136,1.6107,1.6096,1.6072,1.6092,1.6112,1.6106,1.611,1.6084,1.6172,1.6181,1.6189,1.6216,1.6227,1.6092,1.6091,1.6091,1.609,0,1.6362,1.6364,1.6384,1.6355,1.6349,1.6364,1.6315,1.6315,1.6281,1.6251,1.6263,1.6233,1.6218,1.622,1.6187,1.6236,1.622,1.6183,1.6131,1.6208,1.6233,1.6243,1.6099,1.6097,1.6096,1.6095,0,0,1.6501,1.6445,1.6453,1.644,1.6402,1.6403,1.6415,1.6401,1.6401,1.6383,1.6392,1.6388,1.6353,1.6342,1.6306,1.6322,1.6389,1.6282,1.628,1.6302,1.644,1.6467,1.648,1.6362,1.6363,1.6365,1.6442,0,1.658,1.6597,1.6552,1.658,1.6581,1.6521,1.6532,1.6511,1.6484,1.6481,1.6451,1.6449,1.6404,1.6396,1.6409,1.6378,1.6415,1.6372,1.6369,1.6369,1.6376,1.6493,1.6521,1.6595,1.6451,1.6453,1.6454,0,1.6672,1.6658,1.6687,1.6649,1.6647,1.6658,1.6641,1.664,1.6615,1.6594,1.6583,1.6542,1.6552,1.6504,1.6517,1.6489,1.6486,1.647,1.6472,1.6468,1.6415,1.6491,1.6618,1.6629,1.6469,1.6467,1.6466,0,1.677,1.6759,1.6774,1.6765,1.672,1.6729,1.6711,1.6684,1.6678,1.6665,1.666,1.6649,1.6642,1.6634,1.6591,1.656,1.661,1.6558,1.6592,1.6593,1.6603,1.6603,1.673,1.6604,1.6604,1.6604,1.6604,0,1.6861,1.6881,1.6818,1.6827,1.6848,1.6797,1.6819,1.6795,1.6772,1.6776,1.6724,1.6729,1.6673,1.6673,1.664,1.6656,1.6653,1.6637,1.6628,1.664,1.6643,1.6636,1.6629,1.6607,1.6606,1.6606,1.6605,0,1.6972,1.6931,1.6944,1.6901,1.6891,1.6908,1.6872,1.688,1.685,1.6856,1.6855,1.6809,1.6805,1.6763,1.675,1.6728,1.6757,1.6739,1.6765,1.6759,1.6795,1.6792,1.6921,1.6935,1.6802,1.6804,1.6805,0,1.7032,1.7046,1.7005,1.7004,1.6989,1.6988,1.6982,1.6934,1.693,1.6903,1.6914,1.6907,1.6898,1.6896,1.6862,1.6852,1.6833,1.6879,1.6831,1.6844,1.6832,1.6831,1.6832,1.6888,1.689,1.6891,1.6892,0,1.7142,1.7121,1.7115,1.7102,1.7097,1.7085,1.7069,1.7071,1.7018,1.7017,1.7013,1.7006,1.6994,1.6987,1.6972,1.6954,1.6915,1.6908,1.6916,1.6928,1.6942,1.6934,1.6791,1.6905,1.6904,1.6903,1.6902,1.6902,1.7228,1.7238,1.7211,1.7206,1.7189,1.7176,1.7181,1.7153,1.7149,1.7135,1.7107,1.7107,1.7083,1.7059,1.7045,1.7045,1.7021,1.7032,1.7034,1.7037,1.7044,1.6944,1.7042,1.7041,1.7041,1.7041,1.704,0,1.7335,1.7315,1.7311,1.7291,1.7288,1.7252,1.7233,1.7232,1.7233,1.7214,1.7207,1.7203,1.7197,1.7163,1.7154,1.716,1.7142,1.7159,1.7157,1.7154,1.7066,1.706,1.7174,1.7174,1.7174,1.7174,1.7174,1.7174,1.739,1.7404,1.7381,1.7387,1.7367,1.7366,1.7359,1.7347,1.7332,1.7329,1.7324,1.7302,1.7277,1.7266,1.7259,1.7249,1.7248,1.7271,1.7255,1.7173,1.716,1.7148,1.7142,1.7271,1.7271,1.7342,1.7343,1.7344]}]]